Time,TemperatureF,DewpointF,PressureIn,WindDirection,WindDirectionDegrees,WindSpeedMPH,WindSpeedGustMPH,Humidity,HourlyPrecipIn,Conditions,Clouds,dailyrainin,SolarRadiationWatts/m^2,SoftwareType,DateUTC
2013-01-05 00:00:00,61.4,59.1,30.25,NW,325,1.4,3.5,92,0.00,RA,,0.00,0.0,WeatherDisplay:10.37,2013-01-05 05:00:00,
2013-01-05 00:01:00,61.4,59.1,30.25,NW,311,1.3,3.5,92,0.00,RA,,0.00,0.0,WeatherDisplay:10.37,2013-01-05 05:01:00,
2013-01-05 00:06:00,61.4,59.1,30.25,NW,322,1.6,4.0,92,0.00,RA,,0.00,0.0,WeatherDisplay:10.37,2013-01-05 05:06:00,
2013-01-05 00:11:00,61.5,59.2,30.25,NW,325,0.9,4.6,92,0.00,OVC,,0.00,0.0,WeatherDisplay:10.37,2013-01-05 05:11:00,
2013-01-05 00:16:00,61.5,59.2,30.25,North,355,0.1,1.1,92,0.00,OVC,,0.00,0.0,WeatherDisplay:10.37,2013-01-05 05:16:00,
2013-01-05 00:21:00,61.5,59.2,30.25,NNW,329,1.5,3.5,92,0.00,OVC,,0.00,0.0,WeatherDisplay:10.37,2013-01-05 05:21:00,
2013-01-05 00:26:00,61.5,59.2,30.25,NW,308,0.3,2.3,92,0.00,OVC,,0.00,0.0,WeatherDisplay:10.37,2013-01-05 05:26:00,
2013-01-05 00:31:00,61.4,59.1,30.25,NW,311,1.7,4.6,92,0.00,OVC,,0.00,0.0,WeatherDisplay:10.37,2013-01-05 05:31:00,
2013-01-05 00:36:00,61.5,59.2,30.25,NNW,337,0.1,1.1,92,0.00,OVC,,0.00,0.0,WeatherDisplay:10.37,2013-01-05 05:36:00,
2013-01-05 00:41:00,61.4,59.1,30.25,NNE,18,3.0,6.9,92,0.00,OVC,,0.00,0.0,WeatherDisplay:10.37,2013-01-05 05:41:00,
2013-01-05 00:46:00,61.4,59.1,30.24,NW,323,2.4,5.8,92,0.00,OVC,,0.00,0.0,WeatherDisplay:10.37,2013-01-05 05:46:00,
2013-01-05 00:51:00,61.4,59.1,30.24,NW,325,3.3,8.1,92,0.00,OVC,,0.00,0.0,WeatherDisplay:10.37,2013-01-05 05:51:00,
2013-01-05 00:56:00,61.4,59.1,30.25,NNE,23,1.8,5.8,92,0.00,OVC,,0.00,0.0,WeatherDisplay:10.37,2013-01-05 05:56:00,
2013-01-05 01:01:00,61.3,59.0,30.25,NNE,20,3.5,6.9,92,0.00,OVC,,0.00,0.0,WeatherDisplay:10.37,2013-01-05 06:01:00,
2013-01-05 01:06:00,61.3,59.0,30.25,NW,324,3.9,5.8,92,0.00,OVC,,0.00,0.0,WeatherDisplay:10.37,2013-01-05 06:06:00,
2013-01-05 01:11:00,61.3,59.0,30.25,NNE,17,3.2,8.1,92,0.00,OVC,,0.00,0.0,WeatherDisplay:10.37,2013-01-05 06:11:00,
2013-01-05 01:16:00,61.2,58.9,30.25,NW,317,1.6,5.0,92,0.00,OVC,,0.00,0.0,WeatherDisplay:10.37,2013-01-05 06:16:00,
2013-01-05 01:21:00,61.2,58.9,30.24,NW,321,2.7,5.0,92,0.00,OVC,,0.00,0.0,WeatherDisplay:10.37,2013-01-05 06:21:00,
2013-01-05 01:26:00,61.1,58.8,30.24,North,5,3.6,5.8,92,0.00,OVC,,0.00,0.0,WeatherDisplay:10.37,2013-01-05 06:26:00,
2013-01-05 01:31:00,61.1,58.8,30.24,North,5,0.3,5.0,92,0.00,OVC,,0.00,0.0,WeatherDisplay:10.37,2013-01-05 06:31:00,
2013-01-05 01:36:00,61.1,58.8,30.24,NNW,348,2.7,9.2,92,0.00,OVC,,0.00,0.0,WeatherDisplay:10.37,2013-01-05 06:36:00,
2013-01-05 01:41:00,61.1,58.8,30.24,North,360,3.8,5.0,92,0.00,OVC,,0.00,0.0,WeatherDisplay:10.37,2013-01-05 06:41:00,
2013-01-05 01:46:00,61.1,58.8,30.24,North,355,1.4,4.6,92,0.00,OVC,,0.00,0.0,WeatherDisplay:10.37,2013-01-05 06:46:00,
2013-01-05 01:51:00,61.1,58.8,30.24,North,5,1.9,3.5,92,0.00,OVC,,0.00,0.0,WeatherDisplay:10.37,2013-01-05 06:51:00,
2013-01-05 01:56:00,61.1,58.8,30.24,North,350,1.6,3.5,92,0.00,OVC,,0.00,0.0,WeatherDisplay:10.37,2013-01-05 06:56:00,
2013-01-05 02:01:00,61.1,58.8,30.24,NNE,15,2.2,4.6,92,0.00,OVC,,0.00,0.0,WeatherDisplay:10.37,2013-01-05 07:01:00,
2013-01-05 02:06:00,61.1,58.8,30.24,NNW,327,1.4,3.5,92,0.00,OVC,,0.00,0.0,WeatherDisplay:10.37,2013-01-05 07:06:00,
2013-01-05 02:11:00,61.1,58.8,30.24,NNW,337,2.3,4.6,92,0.00,OVC,,0.00,0.0,WeatherDisplay:10.37,2013-01-05 07:11:00,
2013-01-05 02:16:00,61.1,58.8,30.24,NW,304,2.1,6.9,92,0.00,OVC,,0.00,0.0,WeatherDisplay:10.37,2013-01-05 07:16:00,
2013-01-05 02:21:00,61.1,58.8,30.24,WNW,301,2.2,4.6,92,0.00,OVC,,0.00,0.0,WeatherDisplay:10.37,2013-01-05 07:21:00,
2013-01-05 02:26:00,60.9,58.6,30.24,WNW,293,1.6,5.8,92,0.00,OVC,,0.00,0.0,WeatherDisplay:10.37,2013-01-05 07:26:00,
2013-01-05 02:31:00,60.7,58.1,30.24,NNW,331,3.3,8.1,91,0.00,OVC,,0.00,0.0,WeatherDisplay:10.37,2013-01-05 07:31:00,
2013-01-05 02:36:00,60.6,58.0,30.24,NW,325,0.8,3.5,91,0.00,OVC,,0.00,0.0,WeatherDisplay:10.37,2013-01-05 07:36:00,
2013-01-05 02:41:00,60.5,57.9,30.24,NNW,344,2.2,5.8,91,0.00,OVC,,0.00,0.0,WeatherDisplay:10.37,2013-01-05 07:41:00,
2013-01-05 02:46:00,60.4,57.8,30.24,NW,321,2.0,6.0,91,0.00,OVC,,0.00,0.0,WeatherDisplay:10.37,2013-01-05 07:46:00,
2013-01-05 02:51:00,60.3,57.7,30.24,NNW,332,2.3,6.9,91,0.00,OVC,,0.00,0.0,WeatherDisplay:10.37,2013-01-05 07:51:00,
2013-01-05 02:56:00,60.2,57.6,30.24,North,5,2.0,6.9,91,0.00,OVC,,0.00,0.0,WeatherDisplay:10.37,2013-01-05 07:56:00,
2013-01-05 03:01:00,60.2,57.6,30.24,NW,305,0.8,5.0,91,0.00,OVC,,0.00,0.0,WeatherDisplay:10.37,2013-01-05 08:01:00,
2013-01-05 03:06:00,60.2,57.6,30.24,NW,313,1.8,4.0,91,0.00,OVC,,0.00,0.0,WeatherDisplay:10.37,2013-01-05 08:06:00,
2013-01-05 03:11:00,60.1,57.5,30.24,NNW,338,0.0,2.3,91,0.00,OVC,,0.00,0.0,WeatherDisplay:10.37,2013-01-05 08:11:00,
2013-01-05 03:16:00,60.1,57.5,30.24,North,355,0.4,2.3,91,0.00,OVC,,0.00,0.0,WeatherDisplay:10.37,2013-01-05 08:16:00,
2013-01-05 03:21:00,60.0,57.4,30.24,North,355,2.5,4.6,91,0.00,OVC,,0.00,0.0,WeatherDisplay:10.37,2013-01-05 08:21:00,
2013-01-05 03:26:00,60.0,57.4,30.24,North,5,2.3,3.5,91,0.00,OVC,,0.00,0.0,WeatherDisplay:10.37,2013-01-05 08:26:00,
2013-01-05 03:31:00,60.0,57.4,30.23,NNW,344,1.8,5.8,91,0.00,OVC,,0.00,0.0,WeatherDisplay:10.37,2013-01-05 08:31:00,
2013-01-05 03:36:00,60.0,57.4,30.23,NW,321,0.9,3.5,91,0.00,OVC,,0.00,0.0,WeatherDisplay:10.37,2013-01-05 08:36:00,
2013-01-05 03:41:00,60.0,57.4,30.23,North,10,1.3,3.5,91,0.00,OVC,,0.00,0.0,WeatherDisplay:10.37,2013-01-05 08:41:00,
2013-01-05 03:46:00,60.0,57.4,30.23,NW,320,2.5,3.5,91,0.00,OVC,,0.00,0.0,WeatherDisplay:10.37,2013-01-05 08:46:00,
2013-01-05 03:51:00,60.0,57.4,30.23,NNE,17,1.0,3.5,91,0.00,OVC,,0.00,0.0,WeatherDisplay:10.37,2013-01-05 08:51:00,
2013-01-05 03:56:00,59.9,57.3,30.23,North,5,0.8,2.3,91,0.00,OVC,,0.00,0.0,WeatherDisplay:10.37,2013-01-05 08:56:00,
2013-01-05 04:01:00,59.9,57.3,30.23,NNW,339,0.0,2.3,91,0.00,OVC,,0.00,0.0,WeatherDisplay:10.37,2013-01-05 09:01:00,
2013-01-05 04:06:00,59.9,57.3,30.23,North,355,0.0,1.1,91,0.00,OVC,,0.00,0.0,WeatherDisplay:10.37,2013-01-05 09:06:00,
2013-01-05 04:11:00,59.9,57.3,30.23,NNE,24,0.0,1.1,91,0.00,OVC,,0.00,0.0,WeatherDisplay:10.37,2013-01-05 09:11:00,
2013-01-05 04:16:00,59.9,57.0,30.23,North,355,2.1,3.5,90,0.00,OVC,,0.00,0.0,WeatherDisplay:10.37,2013-01-05 09:16:00,
2013-01-05 04:21:00,59.9,57.0,30.23,NNE,24,0.0,0.0,90,0.00,OVC,,0.00,0.0,WeatherDisplay:10.37,2013-01-05 09:21:00,
2013-01-05 04:26:00,59.9,57.0,30.23,North,5,0.5,1.1,90,0.00,OVC,,0.00,0.0,WeatherDisplay:10.37,2013-01-05 09:26:00,
2013-01-05 04:31:00,60.0,57.4,30.23,NNW,344,1.1,3.5,91,0.00,OVC,,0.00,0.0,WeatherDisplay:10.37,2013-01-05 09:31:00,
2013-01-05 04:36:00,60.0,57.4,30.23,North,5,0.0,0.0,91,0.00,OVC,,0.00,0.0,WeatherDisplay:10.37,2013-01-05 09:36:00,
2013-01-05 04:41:00,60.1,57.2,30.23,NNE,13,0.2,2.3,90,0.00,OVC,,0.00,0.0,WeatherDisplay:10.37,2013-01-05 09:41:00,
2013-01-05 04:46:00,60.2,57.3,30.23,North,360,0.6,3.5,90,0.00,OVC,,0.00,0.0,WeatherDisplay:10.37,2013-01-05 09:46:00,
2013-01-05 04:51:00,60.3,57.4,30.23,North,360,2.4,6.9,90,0.00,OVC,,0.00,0.0,WeatherDisplay:10.37,2013-01-05 09:51:00,
2013-01-05 04:56:00,60.4,57.5,30.23,NW,319,1.7,3.5,90,0.00,OVC,,0.00,0.0,WeatherDisplay:10.37,2013-01-05 09:56:00,
2013-01-05 05:01:00,60.4,57.5,30.23,North,355,2.0,5.8,90,0.00,OVC,,0.00,0.0,WeatherDisplay:10.37,2013-01-05 10:01:00,
2013-01-05 05:06:00,60.5,57.6,30.23,North,355,2.2,6.9,90,0.00,OVC,,0.00,0.0,WeatherDisplay:10.37,2013-01-05 10:06:00,
2013-01-05 05:11:00,60.6,57.7,30.24,North,360,1.6,5.8,90,0.00,OVC,,0.00,0.0,WeatherDisplay:10.37,2013-01-05 10:11:00,
2013-01-05 05:16:00,60.6,57.7,30.24,NNW,332,2.6,6.9,90,0.00,OVC,,0.00,0.0,WeatherDisplay:10.37,2013-01-05 10:16:00,
2013-01-05 05:21:00,60.7,57.4,30.24,NE,46,1.4,8.1,89,0.00,OVC,,0.00,0.0,WeatherDisplay:10.37,2013-01-05 10:21:00,
2013-01-05 05:26:00,60.8,57.5,30.24,NNE,17,2.6,5.0,89,0.00,OVC,,0.00,0.0,WeatherDisplay:10.37,2013-01-05 10:26:00,
2013-01-05 05:31:00,60.8,57.5,30.24,NE,35,1.1,3.5,89,0.00,OVC,,0.00,0.0,WeatherDisplay:10.37,2013-01-05 10:31:00,
2013-01-05 05:36:00,60.9,57.6,30.24,North,5,0.2,3.5,89,0.00,OVC,,0.00,0.0,WeatherDisplay:10.37,2013-01-05 10:36:00,
2013-01-05 05:41:00,60.9,57.3,30.24,NW,310,1.2,3.5,88,0.00,OVC,,0.00,0.0,WeatherDisplay:10.37,2013-01-05 10:41:00,
2013-01-05 05:46:00,60.9,57.3,30.24,NNE,14,0.9,3.5,88,0.00,OVC,,0.00,0.0,WeatherDisplay:10.37,2013-01-05 10:46:00,
2013-01-05 05:51:00,61.0,57.4,30.24,North,9,0.0,1.1,88,0.00,OVC,,0.00,0.0,WeatherDisplay:10.37,2013-01-05 10:51:00,
2013-01-05 05:56:00,61.0,57.4,30.24,NW,311,1.9,4.0,88,0.00,OVC,,0.00,0.0,WeatherDisplay:10.37,2013-01-05 10:56:00,
2013-01-05 06:01:00,61.1,57.5,30.24,NW,309,0.2,3.5,88,0.00,OVC,,0.00,0.0,WeatherDisplay:10.37,2013-01-05 11:01:00,
2013-01-05 06:06:00,61.1,57.2,30.24,NW,305,1.7,4.6,87,0.00,OVC,,0.00,0.0,WeatherDisplay:10.37,2013-01-05 11:06:00,
2013-01-05 06:11:00,61.1,57.2,30.24,NW,314,0.6,3.5,87,0.00,OVC,,0.00,0.0,WeatherDisplay:10.37,2013-01-05 11:11:00,
2013-01-05 06:16:00,61.0,57.1,30.24,NW,323,0.0,0.0,87,0.00,OVC,,0.00,0.0,WeatherDisplay:10.37,2013-01-05 11:16:00,
2013-01-05 06:21:00,61.0,57.1,30.25,NW,319,0.1,1.1,87,0.00,OVC,,0.00,0.0,WeatherDisplay:10.37,2013-01-05 11:21:00,
2013-01-05 06:26:00,61.0,57.4,30.25,NW,319,0.0,1.1,88,0.00,OVC,,0.00,0.0,WeatherDisplay:10.37,2013-01-05 11:26:00,
2013-01-05 06:31:00,60.9,57.3,30.25,NW,312,1.6,3.5,88,0.00,OVC,,0.00,0.0,WeatherDisplay:10.37,2013-01-05 11:31:00,
2013-01-05 06:36:00,60.8,57.2,30.25,NW,319,0.8,3.5,88,0.00,OVC,,0.00,0.0,WeatherDisplay:10.37,2013-01-05 11:36:00,
2013-01-05 06:41:00,60.6,57.0,30.25,NNW,334,1.6,6.0,88,0.00,OVC,,0.00,0.0,WeatherDisplay:10.37,2013-01-05 11:41:00,
2013-01-05 06:46:00,60.5,56.9,30.25,WNW,284,1.2,3.5,88,0.00,OVC,,0.00,0.0,WeatherDisplay:10.37,2013-01-05 11:46:00,
2013-01-05 06:51:00,60.3,56.7,30.25,NNW,341,0.7,2.3,88,0.00,OVC,,0.00,0.0,WeatherDisplay:10.37,2013-01-05 11:51:00,
2013-01-05 06:56:00,60.2,56.6,30.25,NNW,327,1.1,3.5,88,0.00,OVC,,0.00,0.0,WeatherDisplay:10.37,2013-01-05 11:56:00,
2013-01-05 07:01:00,60.1,56.5,30.25,NNW,327,1.8,3.5,88,0.00,OVC,,0.00,0.0,WeatherDisplay:10.37,2013-01-05 12:01:00,
2013-01-05 07:06:00,59.9,56.3,30.25,NNW,348,0.4,6.9,88,0.00,OVC,,0.00,0.0,WeatherDisplay:10.37,2013-01-05 12:06:00,
2013-01-05 07:11:00,59.8,56.2,30.26,NW,319,0.0,2.3,88,0.00,OVC,,0.00,0.0,WeatherDisplay:10.37,2013-01-05 12:11:00,
2013-01-05 07:16:00,59.8,56.6,30.26,WNW,300,0.6,1.1,89,0.00,OVC,,0.00,0.0,WeatherDisplay:10.37,2013-01-05 12:16:00,
2013-01-05 07:21:00,59.7,56.5,30.26,NW,323,0.2,3.0,89,0.00,OVC,,0.00,5.0,WeatherDisplay:10.37,2013-01-05 12:21:00,
2013-01-05 07:26:00,59.6,56.4,30.26,NW,312,1.6,4.6,89,0.00,OVC,,0.00,9.0,WeatherDisplay:10.37,2013-01-05 12:26:00,
2013-01-05 07:31:00,59.6,56.4,30.26,NW,317,0.1,1.1,89,0.00,OVC,,0.00,12.0,WeatherDisplay:10.37,2013-01-05 12:31:00,
2013-01-05 07:36:00,59.5,56.3,30.27,NW,322,1.0,3.5,89,0.00,OVC,,0.00,18.0,WeatherDisplay:10.37,2013-01-05 12:36:00,
2013-01-05 07:41:00,59.5,56.3,30.27,NW,318,0.8,2.3,89,0.00,OVC,,0.00,19.0,WeatherDisplay:10.37,2013-01-05 12:41:00,
2013-01-05 07:46:00,59.5,56.3,30.27,NW,317,0.1,1.1,89,0.00,OVC,,0.00,25.0,WeatherDisplay:10.37,2013-01-05 12:46:00,
2013-01-05 07:51:00,59.5,56.3,30.27,NW,307,0.1,3.0,89,0.00,OVC,,0.00,28.0,WeatherDisplay:10.37,2013-01-05 12:51:00,
2013-01-05 07:56:00,59.5,56.3,30.27,WNW,292,2.5,4.6,89,0.00,OVC,,0.00,32.0,WeatherDisplay:10.37,2013-01-05 12:56:00,
2013-01-05 08:01:00,59.5,56.3,30.27,North,355,0.3,2.3,89,0.00,OVC,,0.00,39.0,WeatherDisplay:10.37,2013-01-05 13:01:00,
2013-01-05 08:06:00,59.6,56.4,30.27,NNW,333,0.0,1.1,89,0.00,OVC,,0.00,49.0,WeatherDisplay:10.37,2013-01-05 13:06:00,
2013-01-05 08:11:00,59.7,56.5,30.27,NNW,348,0.0,1.1,89,0.00,OVC,,0.00,53.0,WeatherDisplay:10.37,2013-01-05 13:11:00,
2013-01-05 08:16:00,59.8,56.6,30.27,WNW,282,0.9,4.6,89,0.00,OVC,,0.00,54.0,WeatherDisplay:10.37,2013-01-05 13:16:00,
2013-01-05 08:21:00,59.9,56.6,30.27,North,360,0.1,3.5,89,0.00,OVC,,0.00,114.0,WeatherDisplay:10.37,2013-01-05 13:21:00,
2013-01-05 08:26:00,60.4,57.1,30.27,NW,315,0.5,3.5,89,0.00,OVC,,0.00,156.0,WeatherDisplay:10.37,2013-01-05 13:26:00,
2013-01-05 08:31:00,61.0,57.4,30.27,North,5,1.0,3.5,88,0.00,OVC,,0.00,172.0,WeatherDisplay:10.37,2013-01-05 13:31:00,
2013-01-05 08:36:00,61.7,57.8,30.27,North,9,2.9,4.6,87,0.00,OVC,,0.00,186.0,WeatherDisplay:10.37,2013-01-05 13:36:00,
2013-01-05 08:41:00,62.4,58.2,30.27,ENE,68,0.8,3.5,86,0.00,OVC,,0.00,206.0,WeatherDisplay:10.37,2013-01-05 13:41:00,
2013-01-05 08:46:00,63.1,58.5,30.27,NW,308,3.7,4.6,85,0.00,OVC,,0.00,225.0,WeatherDisplay:10.37,2013-01-05 13:46:00,
2013-01-05 08:51:00,63.7,58.4,30.27,North,11,2.8,4.6,83,0.00,OVC,,0.00,243.0,WeatherDisplay:10.37,2013-01-05 13:51:00,
2013-01-05 08:56:00,64.2,58.6,30.27,North,355,2.4,3.5,82,0.00,OVC,,0.00,260.0,WeatherDisplay:10.37,2013-01-05 13:56:00,
2013-01-05 09:01:00,64.8,58.5,30.27,North,5,2.9,8.1,80,0.00,BKN,,0.00,274.0,WeatherDisplay:10.37,2013-01-05 14:01:00,
2013-01-05 09:06:00,65.2,58.5,30.27,NNW,328,1.5,5.8,79,0.00,BKN,,0.00,288.0,WeatherDisplay:10.37,2013-01-05 14:06:00,
2013-01-05 09:11:00,65.8,59.1,30.27,NNE,33,0.7,2.3,79,0.00,BKN,,0.00,290.0,WeatherDisplay:10.37,2013-01-05 14:11:00,
2013-01-05 09:16:00,66.3,58.9,30.27,NNE,19,2.3,9.0,77,0.00,BKN,,0.00,287.0,WeatherDisplay:10.37,2013-01-05 14:16:00,
2013-01-05 09:21:00,66.5,59.1,30.27,NNE,26,3.6,8.0,77,0.00,BKN,,0.00,330.0,WeatherDisplay:10.37,2013-01-05 14:21:00,
2013-01-05 09:26:00,66.8,59.4,30.27,NE,40,3.3,4.6,77,0.00,BKN,,0.00,346.0,WeatherDisplay:10.37,2013-01-05 14:26:00,
2013-01-05 09:31:00,67.4,59.6,30.27,North,355,0.1,4.6,76,0.00,BKN,,0.00,362.0,WeatherDisplay:10.37,2013-01-05 14:31:00,
2013-01-05 09:36:00,68.0,59.8,30.27,NNW,334,2.3,5.8,75,0.00,BKN,,0.00,373.0,WeatherDisplay:10.37,2013-01-05 14:36:00,
2013-01-05 09:41:00,68.5,59.9,30.28,NE,34,1.1,9.2,74,0.00,BKN,,0.00,385.0,WeatherDisplay:10.37,2013-01-05 14:41:00,
2013-01-05 09:46:00,68.9,60.3,30.28,NE,40,1.8,5.8,74,0.00,BKN,,0.00,397.0,WeatherDisplay:10.37,2013-01-05 14:46:00,
2013-01-05 09:51:00,69.4,60.8,30.28,NNE,17,1.1,3.5,74,0.00,BKN,,0.00,411.0,WeatherDisplay:10.37,2013-01-05 14:51:00,
2013-01-05 09:56:00,70.0,60.9,30.28,North,9,2.4,6.9,73,0.00,BKN,,0.00,424.0,WeatherDisplay:10.37,2013-01-05 14:56:00,
2013-01-05 10:01:00,70.3,60.8,30.28,North,5,1.8,5.8,72,0.00,CLR,,0.00,431.0,WeatherDisplay:10.37,2013-01-05 15:01:00,
2013-01-05 10:06:00,70.7,61.2,30.28,WNW,303,4.4,8.1,72,0.00,CLR,,0.00,443.0,WeatherDisplay:10.37,2013-01-05 15:06:00,
2013-01-05 10:11:00,71.1,61.6,30.28,NNE,19,2.0,6.9,72,0.00,CLR,,0.00,452.0,WeatherDisplay:10.37,2013-01-05 15:11:00,
2013-01-05 10:16:00,71.6,62.1,30.27,NW,319,0.7,6.9,72,0.00,CLR,,0.00,468.0,WeatherDisplay:10.37,2013-01-05 15:16:00,
2013-01-05 10:21:00,72.2,62.3,30.28,NNE,26,2.7,5.8,71,0.00,CLR,,0.00,480.0,WeatherDisplay:10.37,2013-01-05 15:21:00,
2013-01-05 10:26:00,72.1,62.2,30.27,NNW,333,2.2,4.0,71,0.00,CLR,,0.00,492.0,WeatherDisplay:10.37,2013-01-05 15:26:00,
2013-01-05 10:31:00,72.5,62.6,30.27,NNE,26,2.6,7.0,71,0.00,CLR,,0.00,503.0,WeatherDisplay:10.37,2013-01-05 15:31:00,
2013-01-05 10:36:00,72.8,62.4,30.27,ENE,62,1.0,3.5,70,0.00,CLR,,0.00,510.0,WeatherDisplay:10.37,2013-01-05 15:36:00,
2013-01-05 10:41:00,72.9,62.5,30.27,North,355,3.6,6.9,70,0.00,CLR,,0.00,497.0,WeatherDisplay:10.37,2013-01-05 15:41:00,
2013-01-05 10:46:00,73.1,62.7,30.27,North,349,3.1,6.9,70,0.00,CLR,,0.00,517.0,WeatherDisplay:10.37,2013-01-05 15:46:00,
2013-01-05 10:51:00,73.5,63.1,30.27,North,5,3.6,7.0,70,0.00,CLR,,0.00,524.0,WeatherDisplay:10.37,2013-01-05 15:51:00,
2013-01-05 10:56:00,73.6,63.2,30.27,NNE,20,3.2,8.1,70,0.00,CLR,,0.00,534.0,WeatherDisplay:10.37,2013-01-05 15:56:00,
2013-01-05 11:01:00,73.3,63.3,30.27,NNE,24,2.5,6.9,71,0.00,CLR,,0.00,552.0,WeatherDisplay:10.37,2013-01-05 16:01:00,
2013-01-05 11:06:00,73.7,63.7,30.26,ENE,73,5.1,11.5,71,0.00,CLR,,0.00,557.0,WeatherDisplay:10.37,2013-01-05 16:06:00,
2013-01-05 11:11:00,74.1,63.7,30.26,NNW,328,3.5,4.6,70,0.00,CLR,,0.00,566.0,WeatherDisplay:10.37,2013-01-05 16:11:00,
2013-01-05 11:16:00,74.2,63.8,30.26,NE,42,6.1,9.0,70,0.00,CLR,,0.00,577.0,WeatherDisplay:10.37,2013-01-05 16:16:00,
2013-01-05 11:21:00,74.3,63.5,30.26,North,355,4.5,11.5,69,0.00,CLR,,0.00,578.0,WeatherDisplay:10.37,2013-01-05 16:21:00,
2013-01-05 11:26:00,74.4,63.6,30.26,NNE,17,4.3,11.5,69,0.00,CLR,,0.00,599.0,WeatherDisplay:10.37,2013-01-05 16:26:00,
2013-01-05 11:31:00,74.8,63.9,30.25,NE,49,5.3,8.0,69,0.00,CLR,,0.00,517.0,WeatherDisplay:10.37,2013-01-05 16:31:00,
2013-01-05 11:36:00,74.7,64.7,30.25,ENE,57,1.2,4.6,71,0.00,CLR,,0.00,529.0,WeatherDisplay:10.37,2013-01-05 16:36:00,
2013-01-05 11:41:00,75.4,64.9,30.25,NNW,337,1.4,5.8,70,0.00,CLR,,0.00,575.0,WeatherDisplay:10.37,2013-01-05 16:41:00,
2013-01-05 11:46:00,75.6,64.7,30.25,NNE,17,3.0,9.2,69,0.00,CLR,,0.00,601.0,WeatherDisplay:10.37,2013-01-05 16:46:00,
2013-01-05 11:51:00,75.3,64.8,30.25,NE,45,3.7,9.2,70,0.00,CLR,,0.00,606.0,WeatherDisplay:10.37,2013-01-05 16:51:00,
2013-01-05 11:56:00,75.5,65.0,30.24,NNE,18,5.8,10.4,70,0.00,CLR,,0.00,606.0,WeatherDisplay:10.37,2013-01-05 16:56:00,
2013-01-05 12:01:00,75.5,64.6,30.24,NE,34,8.2,17.3,69,0.00,CLR,,0.00,624.0,WeatherDisplay:10.37,2013-01-05 17:01:00,
2013-01-05 12:06:00,75.1,65.5,30.24,NE,34,5.2,9.2,72,0.00,CLR,,0.00,622.0,WeatherDisplay:10.37,2013-01-05 17:06:00,
2013-01-05 12:11:00,75.1,65.5,30.23,NE,46,6.8,11.5,72,0.00,CLR,,0.00,635.0,WeatherDisplay:10.37,2013-01-05 17:11:00,
2013-01-05 12:16:00,75.1,65.5,30.23,NW,316,3.3,8.1,72,0.00,CLR,,0.00,624.0,WeatherDisplay:10.37,2013-01-05 17:16:00,
2013-01-05 12:21:00,75.1,65.5,30.23,NW,324,2.6,7.0,72,0.00,CLR,,0.00,621.0,WeatherDisplay:10.37,2013-01-05 17:21:00,
2013-01-05 12:26:00,75.7,66.0,30.22,NE,36,3.8,9.2,72,0.00,CLR,,0.00,621.0,WeatherDisplay:10.37,2013-01-05 17:26:00,
2013-01-05 12:31:00,75.8,66.1,30.22,ENE,58,3.9,9.2,72,0.00,CLR,,0.00,619.0,WeatherDisplay:10.37,2013-01-05 17:31:00,
2013-01-05 12:36:00,76.1,66.0,30.22,NNE,16,7.5,11.5,71,0.00,CLR,,0.00,626.0,WeatherDisplay:10.37,2013-01-05 17:36:00,
2013-01-05 12:41:00,75.7,65.6,30.21,East,90,10.5,13.8,71,0.00,CLR,,0.00,661.0,WeatherDisplay:10.37,2013-01-05 17:41:00,
2013-01-05 12:46:00,75.0,65.8,30.21,North,355,5.7,13.8,73,0.00,CLR,,0.00,693.0,WeatherDisplay:10.37,2013-01-05 17:46:00,
2013-01-05 12:51:00,75.2,66.3,30.21,ENE,58,7.4,9.2,74,0.00,CLR,,0.00,353.0,WeatherDisplay:10.37,2013-01-05 17:51:00,
2013-01-05 12:56:00,74.4,65.6,30.21,NNE,24,4.5,9.2,74,0.00,CLR,,0.00,540.0,WeatherDisplay:10.37,2013-01-05 17:56:00,
2013-01-05 13:01:00,74.8,66.3,30.21,North,355,4.3,10.4,75,0.00,CLR,,0.00,346.0,WeatherDisplay:10.37,2013-01-05 18:01:00,
2013-01-05 13:06:00,75.1,66.2,30.21,NE,38,2.3,5.8,74,0.00,CLR,,0.00,304.0,WeatherDisplay:10.37,2013-01-05 18:06:00,
2013-01-05 13:11:00,74.8,66.0,30.21,NW,323,1.9,9.2,74,0.00,CLR,,0.00,258.0,WeatherDisplay:10.37,2013-01-05 18:11:00,
2013-01-05 13:16:00,74.6,66.1,30.20,NE,47,4.6,6.9,75,0.00,CLR,,0.00,320.0,WeatherDisplay:10.37,2013-01-05 18:16:00,
2013-01-05 13:21:00,74.4,66.3,30.20,NNE,32,2.7,6.9,76,0.00,CLR,,0.00,768.0,WeatherDisplay:10.37,2013-01-05 18:21:00,
2013-01-05 13:26:00,75.0,66.1,30.20,NE,34,5.4,10.4,74,0.00,CLR,,0.00,768.0,WeatherDisplay:10.37,2013-01-05 18:26:00,
2013-01-05 13:31:00,75.0,66.1,30.20,NE,56,5.9,8.1,74,0.00,CLR,,0.00,350.0,WeatherDisplay:10.37,2013-01-05 18:31:00,
2013-01-05 13:36:00,74.5,66.1,30.20,NNE,33,5.7,11.5,75,0.00,CLR,,0.00,265.0,WeatherDisplay:10.37,2013-01-05 18:36:00,
2013-01-05 13:41:00,74.3,66.6,30.19,NE,36,2.7,9.0,77,0.00,CLR,,0.00,327.0,WeatherDisplay:10.37,2013-01-05 18:41:00,
2013-01-05 13:46:00,74.4,66.7,30.19,NNE,28,2.9,6.0,77,0.00,CLR,,0.00,330.0,WeatherDisplay:10.37,2013-01-05 18:46:00,
2013-01-05 13:51:00,74.5,66.8,30.19,ENE,64,1.0,5.0,77,0.00,CLR,,0.00,237.0,WeatherDisplay:10.37,2013-01-05 18:51:00,
2013-01-05 13:56:00,74.0,66.3,30.19,NNE,15,2.6,3.5,77,0.00,CLR,,0.00,411.0,WeatherDisplay:10.37,2013-01-05 18:56:00,
2013-01-05 14:01:00,74.8,67.5,30.19,ENE,66,4.2,7.0,78,0.00,BKN,,0.00,696.0,WeatherDisplay:10.37,2013-01-05 19:01:00,
2013-01-05 14:06:00,74.8,66.7,30.19,North,9,3.8,6.0,76,0.00,BKN,,0.00,163.0,WeatherDisplay:10.37,2013-01-05 19:06:00,
2013-01-05 14:11:00,74.5,66.4,30.19,NNW,343,2.7,8.1,76,0.00,BKN,,0.00,171.0,WeatherDisplay:10.37,2013-01-05 19:11:00,
2013-01-05 14:16:00,74.0,66.7,30.19,ENE,58,1.4,3.5,78,0.00,BKN,,0.00,130.0,WeatherDisplay:10.37,2013-01-05 19:16:00,
2013-01-05 14:21:00,73.7,66.4,30.19,NNE,15,1.2,6.9,78,0.00,BKN,,0.00,121.0,WeatherDisplay:10.37,2013-01-05 19:21:00,
2013-01-05 14:26:00,73.4,66.5,30.19,North,10,3.9,5.8,79,0.00,BKN,,0.00,169.0,WeatherDisplay:10.37,2013-01-05 19:26:00,
2013-01-05 14:31:00,73.5,66.6,30.18,ENE,67,3.0,5.8,79,0.00,BKN,,0.00,185.0,WeatherDisplay:10.37,2013-01-05 19:31:00,
2013-01-05 14:36:00,73.5,66.9,30.18,NNE,32,4.4,6.9,80,0.00,BKN,,0.00,218.0,WeatherDisplay:10.37,2013-01-05 19:36:00,
2013-01-05 14:41:00,73.6,67.0,30.18,NE,37,1.5,5.8,80,0.00,BKN,,0.00,290.0,WeatherDisplay:10.37,2013-01-05 19:41:00,
2013-01-05 14:46:00,73.8,67.2,30.18,NE,34,2.4,4.6,80,0.00,BKN,,0.00,267.0,WeatherDisplay:10.37,2013-01-05 19:46:00,
2013-01-05 14:51:00,74.2,67.3,30.19,NE,53,4.9,8.1,79,0.00,BKN,,0.00,545.0,WeatherDisplay:10.37,2013-01-05 19:51:00,
2013-01-05 14:56:00,74.1,67.2,30.19,ENE,59,0.6,3.5,79,0.00,BKN,,0.00,200.0,WeatherDisplay:10.37,2013-01-05 19:56:00,
2013-01-05 15:01:00,74.3,67.7,30.18,ENE,71,2.8,5.8,80,0.00,OVC,,0.00,186.0,WeatherDisplay:10.37,2013-01-05 20:01:00,
2013-01-05 15:06:00,74.4,67.5,30.19,ENE,58,1.4,5.0,79,0.00,OVC,,0.00,179.0,WeatherDisplay:10.37,2013-01-05 20:06:00,
2013-01-05 15:11:00,74.3,67.4,30.18,NE,48,3.8,6.9,79,0.00,OVC,,0.00,172.0,WeatherDisplay:10.37,2013-01-05 20:11:00,
2013-01-05 15:16:00,74.0,67.4,30.19,NE,46,0.8,4.0,80,0.00,OVC,,0.00,167.0,WeatherDisplay:10.37,2013-01-05 20:16:00,
2013-01-05 15:21:00,73.9,67.7,30.19,NE,34,3.5,6.0,81,0.00,OVC,,0.00,139.0,WeatherDisplay:10.37,2013-01-05 20:21:00,
2013-01-05 15:26:00,73.6,67.4,30.19,North,355,0.1,6.9,81,0.00,OVC,,0.00,114.0,WeatherDisplay:10.37,2013-01-05 20:26:00,
2013-01-05 15:31:00,73.6,67.4,30.19,ENE,58,0.9,3.5,81,0.00,OVC,,0.00,123.0,WeatherDisplay:10.37,2013-01-05 20:31:00,
2013-01-05 15:36:00,73.5,67.3,30.19,NE,44,2.9,5.8,81,0.00,OVC,,0.00,137.0,WeatherDisplay:10.37,2013-01-05 20:36:00,
2013-01-05 15:41:00,73.4,67.6,30.19,ENE,76,0.4,3.5,82,0.00,OVC,,0.00,158.0,WeatherDisplay:10.37,2013-01-05 20:41:00,
2013-01-05 15:46:00,73.5,67.7,30.19,NE,50,1.5,3.5,82,0.00,OVC,,0.00,258.0,WeatherDisplay:10.37,2013-01-05 20:46:00,
2013-01-05 15:51:00,73.7,67.9,30.19,North,5,1.2,3.5,82,0.00,OVC,,0.00,283.0,WeatherDisplay:10.37,2013-01-05 20:51:00,
2013-01-05 15:56:00,74.2,68.0,30.19,NE,42,1.7,4.6,81,0.00,OVC,,0.00,346.0,WeatherDisplay:10.37,2013-01-05 20:56:00,
2013-01-05 16:01:00,74.6,68.4,30.19,NE,47,0.8,4.6,81,0.00,OVC,,0.00,315.0,WeatherDisplay:10.37,2013-01-05 21:01:00,
2013-01-05 16:06:00,74.6,68.0,30.19,NE,46,3.2,5.0,80,0.00,OVC,,0.00,118.0,WeatherDisplay:10.37,2013-01-05 21:06:00,
2013-01-05 16:11:00,74.1,67.9,30.19,NE,36,1.4,5.8,81,0.00,OVC,,0.00,113.0,WeatherDisplay:10.37,2013-01-05 21:11:00,
2013-01-05 16:16:00,73.9,67.7,30.19,North,349,0.8,4.6,81,0.00,OVC,,0.00,127.0,WeatherDisplay:10.37,2013-01-05 21:16:00,
2013-01-05 16:21:00,74.0,67.8,30.19,North,5,2.3,4.6,81,0.00,OVC,,0.00,81.0,WeatherDisplay:10.37,2013-01-05 21:21:00,
2013-01-05 16:26:00,74.0,67.8,30.19,North,360,0.9,3.5,81,0.00,OVC,,0.00,76.0,WeatherDisplay:10.37,2013-01-05 21:26:00,
2013-01-05 16:31:00,73.9,67.7,30.19,NNE,14,2.2,5.8,81,0.00,OVC,,0.00,86.0,WeatherDisplay:10.37,2013-01-05 21:31:00,
2013-01-05 16:36:00,73.7,67.9,30.19,NE,43,0.6,3.5,82,0.00,OVC,,0.00,67.0,WeatherDisplay:10.37,2013-01-05 21:36:00,
2013-01-05 16:41:00,73.6,67.8,30.19,NNE,23,1.4,3.5,82,0.00,OVC,,0.00,67.0,WeatherDisplay:10.37,2013-01-05 21:41:00,
2013-01-05 16:46:00,73.4,67.9,30.19,North,360,0.0,1.1,83,0.00,OVC,,0.00,90.0,WeatherDisplay:10.37,2013-01-05 21:46:00,
2013-01-05 16:51:00,73.3,67.8,30.19,NNE,14,1.7,2.3,83,0.00,OVC,,0.00,111.0,WeatherDisplay:10.37,2013-01-05 21:51:00,
2013-01-05 16:56:00,73.1,68.0,30.19,North,5,0.3,2.3,84,0.00,OVC,,0.00,142.0,WeatherDisplay:10.37,2013-01-05 21:56:00,
2013-01-05 17:01:00,73.1,68.3,30.19,North,5,0.1,2.3,85,0.00,OVC,,0.00,98.0,WeatherDisplay:10.37,2013-01-05 22:01:00,
2013-01-05 17:06:00,72.8,68.0,30.19,NW,314,0.4,2.0,85,0.00,OVC,,0.00,77.0,WeatherDisplay:10.37,2013-01-05 22:06:00,
2013-01-05 17:11:00,72.6,68.2,30.19,North,360,1.9,3.5,86,0.00,OVC,,0.00,56.0,WeatherDisplay:10.37,2013-01-05 22:11:00,
2013-01-05 17:16:00,72.4,68.3,30.20,North,360,0.9,2.0,87,0.00,OVC,,0.00,19.0,WeatherDisplay:10.37,2013-01-05 22:16:00,
2013-01-05 17:21:00,72.0,67.9,30.20,NNW,337,0.0,0.0,87,0.00,OVC,,0.00,12.0,WeatherDisplay:10.37,2013-01-05 22:21:00,
2013-01-05 17:26:00,71.7,68.0,30.20,NW,319,0.6,3.5,88,0.00,OVC,,0.00,9.0,WeatherDisplay:10.37,2013-01-05 22:26:00,
2013-01-05 17:31:00,71.3,67.6,30.20,North,355,2.4,3.5,88,0.00,OVC,,0.00,5.0,WeatherDisplay:10.37,2013-01-05 22:31:00,
2013-01-05 17:36:00,70.9,67.5,30.20,North,355,0.0,1.1,89,0.01,RA,,0.01,5.0,WeatherDisplay:10.37,2013-01-05 22:36:00,
2013-01-05 17:41:00,70.6,67.5,30.20,NW,314,0.0,1.1,90,0.01,RA,,0.01,0.0,WeatherDisplay:10.37,2013-01-05 22:41:00,
2013-01-05 17:46:00,70.4,67.3,30.20,North,355,0.0,0.0,90,0.01,OVC,,0.01,0.0,WeatherDisplay:10.37,2013-01-05 22:46:00,
2013-01-05 17:51:00,70.2,67.1,30.20,NNW,332,0.0,0.0,90,0.01,OVC,,0.01,0.0,WeatherDisplay:10.37,2013-01-05 22:51:00,
2013-01-05 17:56:00,70.1,67.3,30.20,NW,312,0.4,0.0,91,0.01,OVC,,0.01,0.0,WeatherDisplay:10.37,2013-01-05 22:56:00,
2013-01-05 18:01:00,69.9,67.2,30.20,NW,321,0.0,0.0,91,0.01,OVC,,0.01,0.0,WeatherDisplay:10.37,2013-01-05 23:01:00,
2013-01-05 18:06:00,69.8,67.1,30.21,NNE,13,0.1,2.3,91,0.01,OVC,,0.01,0.0,WeatherDisplay:10.37,2013-01-05 23:06:00,
2013-01-05 18:11:00,69.7,67.0,30.21,North,11,0.1,1.1,91,0.01,OVC,,0.01,0.0,WeatherDisplay:10.37,2013-01-05 23:11:00,
2013-01-05 18:16:00,69.5,66.8,30.21,North,11,0.0,0.0,91,0.01,OVC,,0.01,0.0,WeatherDisplay:10.37,2013-01-05 23:16:00,
2013-01-05 18:21:00,69.4,67.0,30.21,North,5,0.0,0.0,92,0.01,OVC,,0.01,0.0,WeatherDisplay:10.37,2013-01-05 23:21:00,
2013-01-05 18:26:00,69.3,66.9,30.21,North,5,0.0,0.0,92,0.01,OVC,,0.01,0.0,WeatherDisplay:10.37,2013-01-05 23:26:00,
2013-01-05 18:31:00,69.2,66.8,30.21,North,360,0.0,0.0,92,0.01,OVC,,0.01,0.0,WeatherDisplay:10.37,2013-01-05 23:31:00,
2013-01-05 18:36:00,69.2,66.8,30.21,NNE,23,0.1,3.5,92,0.00,OVC,,0.01,0.0,WeatherDisplay:10.37,2013-01-05 23:36:00,
2013-01-05 18:41:00,69.1,66.7,30.22,NNE,21,0.2,3.5,92,0.00,OVC,,0.01,0.0,WeatherDisplay:10.37,2013-01-05 23:41:00,
2013-01-05 18:46:00,69.0,66.6,30.21,North,5,0.3,3.5,92,0.00,OVC,,0.01,0.0,WeatherDisplay:10.37,2013-01-05 23:46:00,
2013-01-05 18:51:00,68.9,66.5,30.22,NNE,18,0.7,2.3,92,0.00,OVC,,0.01,0.0,WeatherDisplay:10.37,2013-01-05 23:51:00,
2013-01-05 18:56:00,68.8,66.7,30.22,NNE,14,0.1,0.0,93,0.00,OVC,,0.01,0.0,WeatherDisplay:10.37,2013-01-05 23:56:00,
2013-01-05 19:01:00,68.7,66.6,30.22,NNE,14,0.0,1.1,93,0.00,OVC,,0.01,0.0,WeatherDisplay:10.37,2013-01-06 00:01:00,
2013-01-05 19:06:00,68.7,66.6,30.22,NNE,14,0.1,2.0,93,0.00,OVC,,0.01,0.0,WeatherDisplay:10.37,2013-01-06 00:06:00,
2013-01-05 19:11:00,68.6,66.5,30.22,NNE,17,0.1,1.1,93,0.00,OVC,,0.01,0.0,WeatherDisplay:10.37,2013-01-06 00:11:00,
2013-01-05 19:16:00,68.5,66.4,30.22,NNW,346,0.8,3.5,93,0.00,OVC,,0.01,0.0,WeatherDisplay:10.37,2013-01-06 00:16:00,
2013-01-05 19:21:00,68.5,66.4,30.22,North,360,0.1,1.1,93,0.00,OVC,,0.01,0.0,WeatherDisplay:10.37,2013-01-06 00:21:00,
2013-01-05 19:26:00,68.4,66.3,30.22,North,360,0.0,1.1,93,0.00,OVC,,0.01,0.0,WeatherDisplay:10.37,2013-01-06 00:26:00,
2013-01-05 19:31:00,68.3,66.2,30.22,North,355,0.0,1.1,93,0.00,OVC,,0.01,0.0,WeatherDisplay:10.37,2013-01-06 00:31:00,
2013-01-05 19:36:00,68.3,66.2,30.22,North,355,0.3,3.5,93,0.00,OVC,,0.01,0.0,WeatherDisplay:10.37,2013-01-06 00:36:00,
2013-01-05 19:41:00,68.3,66.2,30.22,North,355,0.3,2.3,93,0.00,OVC,,0.01,0.0,WeatherDisplay:10.37,2013-01-06 00:41:00,
2013-01-05 19:46:00,68.2,66.1,30.22,North,350,1.3,3.0,93,0.00,OVC,,0.01,0.0,WeatherDisplay:10.37,2013-01-06 00:46:00,
2013-01-05 19:51:00,68.2,66.1,30.22,North,355,1.2,2.3,93,0.00,OVC,,0.01,0.0,WeatherDisplay:10.37,2013-01-06 00:51:00,
2013-01-05 19:56:00,68.1,66.3,30.22,NNW,345,0.4,3.5,94,0.00,OVC,,0.01,0.0,WeatherDisplay:10.37,2013-01-06 00:56:00,
2013-01-05 20:01:00,68.1,66.3,30.23,North,355,0.0,1.1,94,0.00,OVC,,0.01,0.0,WeatherDisplay:10.37,2013-01-06 01:01:00,
2013-01-05 20:06:00,68.1,66.3,30.23,North,355,0.9,1.0,94,0.00,OVC,,0.01,0.0,WeatherDisplay:10.37,2013-01-06 01:06:00,
2013-01-05 20:11:00,68.1,66.3,30.23,North,355,0.0,0.0,94,0.00,OVC,,0.01,0.0,WeatherDisplay:10.37,2013-01-06 01:11:00,
2013-01-05 20:16:00,68.1,66.3,30.23,North,355,0.0,0.0,94,0.00,OVC,,0.01,0.0,WeatherDisplay:10.37,2013-01-06 01:16:00,
2013-01-05 20:21:00,68.1,66.3,30.23,North,355,0.0,0.0,94,0.00,OVC,,0.01,0.0,WeatherDisplay:10.37,2013-01-06 01:21:00,
2013-01-05 20:26:00,68.1,66.3,30.23,North,355,0.0,1.1,94,0.00,OVC,,0.01,0.0,WeatherDisplay:10.37,2013-01-06 01:26:00,
2013-01-05 20:31:00,68.1,66.3,30.23,North,355,0.0,0.0,94,0.00,OVC,,0.01,0.0,WeatherDisplay:10.37,2013-01-06 01:31:00,
2013-01-05 20:36:00,68.1,66.3,30.24,North,355,0.0,0.0,94,0.00,OVC,,0.01,0.0,WeatherDisplay:10.37,2013-01-06 01:36:00,
2013-01-05 20:41:00,68.1,66.3,30.24,North,355,0.0,0.0,94,0.00,OVC,,0.01,0.0,WeatherDisplay:10.37,2013-01-06 01:41:00,
2013-01-05 20:46:00,68.2,66.4,30.24,North,355,0.0,1.1,94,0.00,OVC,,0.01,0.0,WeatherDisplay:10.37,2013-01-06 01:46:00,
2013-01-05 20:51:00,68.2,66.4,30.24,North,355,0.0,0.0,94,0.00,OVC,,0.01,0.0,WeatherDisplay:10.37,2013-01-06 01:51:00,
2013-01-05 20:56:00,68.2,66.4,30.24,North,355,0.0,0.0,94,0.00,OVC,,0.01,0.0,WeatherDisplay:10.37,2013-01-06 01:56:00,
2013-01-05 21:01:00,68.2,66.4,30.24,North,355,0.0,0.0,94,0.00,OVC,,0.01,0.0,WeatherDisplay:10.37,2013-01-06 02:01:00,
2013-01-05 21:06:00,68.3,66.5,30.24,North,355,0.0,0.0,94,0.00,OVC,,0.01,0.0,WeatherDisplay:10.37,2013-01-06 02:06:00,
2013-01-05 21:11:00,68.3,66.5,30.23,North,355,0.0,0.0,94,0.00,OVC,,0.01,0.0,WeatherDisplay:10.37,2013-01-06 02:11:00,
2013-01-05 21:16:00,68.3,66.5,30.23,North,355,0.8,2.3,94,0.00,OVC,,0.01,0.0,WeatherDisplay:10.37,2013-01-06 02:16:00,
2013-01-05 21:21:00,68.3,66.5,30.23,North,355,0.0,1.1,94,0.00,OVC,,0.01,0.0,WeatherDisplay:10.37,2013-01-06 02:21:00,
2013-01-05 21:26:00,68.3,66.5,30.23,North,355,0.0,0.0,94,0.00,OVC,,0.01,0.0,WeatherDisplay:10.37,2013-01-06 02:26:00,
2013-01-05 21:31:00,68.3,66.5,30.23,North,355,0.0,0.0,94,0.00,OVC,,0.01,0.0,WeatherDisplay:10.37,2013-01-06 02:31:00,
2013-01-05 21:36:00,68.3,66.8,30.24,North,355,0.0,1.1,95,0.00,OVC,,0.01,0.0,WeatherDisplay:10.37,2013-01-06 02:36:00,
2013-01-05 21:41:00,68.3,66.8,30.24,North,355,0.0,0.0,95,0.00,OVC,,0.01,0.0,WeatherDisplay:10.37,2013-01-06 02:41:00,
2013-01-05 21:46:00,68.3,66.8,30.24,North,355,0.0,0.0,95,0.00,OVC,,0.01,0.0,WeatherDisplay:10.37,2013-01-06 02:46:00,
2013-01-05 21:51:00,68.3,66.8,30.24,North,355,0.0,0.0,95,0.02,RA,,0.03,0.0,WeatherDisplay:10.37,2013-01-06 02:51:00,
2013-01-05 21:56:00,68.3,66.8,30.24,North,355,0.0,0.0,95,0.04,RA,,0.06,0.0,WeatherDisplay:10.37,2013-01-06 02:56:00,
2013-01-05 22:01:00,68.3,66.8,30.24,North,355,0.0,0.0,95,0.08,RA,,0.09,0.0,WeatherDisplay:10.37,2013-01-06 03:01:00,
2013-01-05 22:06:00,68.3,66.8,30.24,North,355,0.1,1.1,95,0.11,RA,,0.13,0.0,WeatherDisplay:10.37,2013-01-06 03:06:00,
2013-01-05 22:11:00,68.3,66.8,30.24,North,355,0.0,0.0,95,0.16,RA,,0.17,0.0,WeatherDisplay:10.37,2013-01-06 03:11:00,
2013-01-05 22:16:00,68.3,66.8,30.24,North,355,0.0,0.0,95,0.16,RA,,0.18,0.0,WeatherDisplay:10.37,2013-01-06 03:16:00,
2013-01-05 22:21:00,68.3,66.8,30.24,North,355,0.0,0.0,95,0.18,RA,,0.19,0.0,WeatherDisplay:10.37,2013-01-06 03:21:00,
2013-01-05 22:26:00,68.3,66.8,30.23,North,355,0.1,1.1,95,0.19,RA,,0.20,0.0,WeatherDisplay:10.37,2013-01-06 03:26:00,
2013-01-05 22:31:00,68.3,66.8,30.23,North,355,0.0,1.1,95,0.22,RA,,0.23,0.0,WeatherDisplay:10.37,2013-01-06 03:31:00,
2013-01-05 22:36:00,68.3,66.8,30.23,North,355,0.7,2.3,95,0.24,RA,,0.25,0.0,WeatherDisplay:10.37,2013-01-06 03:36:00,
2013-01-05 22:41:00,68.3,66.8,30.23,North,355,0.0,0.0,95,0.26,RA,,0.27,0.0,WeatherDisplay:10.37,2013-01-06 03:41:00,
2013-01-05 22:46:00,68.3,66.8,30.23,North,355,0.6,2.3,95,0.29,RA,,0.31,0.0,WeatherDisplay:10.37,2013-01-06 03:46:00,
2013-01-05 22:51:00,68.3,66.8,30.23,North,360,0.0,2.3,95,0.30,RA,,0.33,0.0,WeatherDisplay:10.37,2013-01-06 03:51:00,
2013-01-05 22:56:00,68.3,66.8,30.22,NE,45,0.7,2.3,95,0.31,RA,,0.36,0.0,WeatherDisplay:10.37,2013-01-06 03:56:00,
2013-01-05 23:01:00,68.3,66.8,30.22,North,10,0.3,2.0,95,0.28,-RA,,0.37,0.0,WeatherDisplay:10.37,2013-01-06 04:01:00,
2013-01-05 23:06:00,68.1,66.6,30.22,North,9,0.0,2.3,95,0.25,-RA,,0.37,0.0,WeatherDisplay:10.37,2013-01-06 04:06:00,
2013-01-05 23:11:00,68.0,66.5,30.22,NNW,347,0.0,0.0,95,0.21,-RA,,0.39,0.0,WeatherDisplay:10.37,2013-01-06 04:11:00,
2013-01-05 23:16:00,67.9,66.4,30.22,NNW,348,0.8,2.0,95,0.22,-RA,,0.39,0.0,WeatherDisplay:10.37,2013-01-06 04:16:00,
2013-01-05 23:21:00,67.9,66.4,30.22,North,355,0.4,3.5,95,0.20,-RA,,0.39,0.0,WeatherDisplay:10.37,2013-01-06 04:21:00,
2013-01-05 23:26:00,67.8,66.3,30.22,NNE,24,1.6,3.5,95,0.19,-RA,,0.39,0.0,WeatherDisplay:10.37,2013-01-06 04:26:00,
2013-01-05 23:31:00,67.7,66.2,30.22,NNE,22,1.3,3.5,95,0.16,-RA,,0.39,0.0,WeatherDisplay:10.37,2013-01-06 04:31:00,
2013-01-05 23:36:00,67.6,66.1,30.22,ENE,59,0.2,4.0,95,0.14,-RA,,0.39,0.0,WeatherDisplay:10.37,2013-01-06 04:36:00,
2013-01-05 23:41:00,67.6,66.1,30.22,NE,36,0.0,0.0,95,0.12,-RA,,0.39,0.0,WeatherDisplay:10.37,2013-01-06 04:41:00,
2013-01-05 23:46:00,67.5,66.0,30.21,NNE,32,0.1,1.1,95,0.09,-RA,,0.39,0.0,WeatherDisplay:10.37,2013-01-06 04:46:00,
2013-01-05 23:51:00,67.5,66.0,30.21,NNE,30,0.1,2.0,95,0.06,-RA,,0.39,0.0,WeatherDisplay:10.37,2013-01-06 04:51:00,
2013-01-05 23:56:00,67.4,65.9,30.21,NNE,31,0.0,0.0,95,0.03,-RA,,0.39,0.0,WeatherDisplay:10.37,2013-01-06 04:56:00,